Content
SEND FEEDBACK

Daily
Averages
Monthly
Summary
United States of America

QUARTZ HILL, CALIFORNIA


Home > North America > United States > California
Elevation: 2350 feet     Latitude: 34 42N     Longitude: 118 09W

WEATHER
 
SELECT A DAY
Number of Records: 15,277;   Date Range: 9/1/12 - 9/18/14
 
SHARE

PRINT THIS DATA

[ ← Previous Day ]
WEATHER ALMANAC - JANUARY 31, 2013
[ Next Day → ]
[ °C ]   °F
Weather ElementAverageHighLow
Temperature46.9 °F66.9 °F (2:56 pm)28.9 °F (4:56 am)
Dewpoint28 °F30.9 °F (10:56 am)24.1 °F (4:56 am)
Humidity53 %82 % (4:56 am)23 % (3:56 pm)
Barometer30.28 in30.36 in (8:56 am)30.21 in (3:56 pm)
Wind Speed3.3 mph9.2 mph (7:56 pm)
Weather ElementAverage
Visibility10 mi
Wind DirectionESE (104.8 °)

Weather ElementTotal
Precipitation---
Heating Degree Days17.1 (Base 65)
Averaged from 23 records on January 31, 2013
WEATHER CONDITIONS BREAKOUT
WIND DIRECTION BREAKOUT
WEATHER BY HOUR - JANUARY 31, 2013
[ °C ]   °F
Local TimeTemperatureDewpointHumidityBarometerVisibilityWind DirectionWind SpeedGust SpeedPrecipitationEventsConditions
1:56 AM36.0 °F27.0 °F70 %30.31 in10.0 miWSW (240°)4.6 mphClear
2:56 AM32.0 °F26.1 °F79 %30.31 in10.0 miCalmClear
3:56 AM34.0 °F26.1 °F73 %30.30 in10.0 miCalmClear
4:56 AM28.9 °F24.1 °F82 %30.31 in10.0 miWNW (300°)4.6 mphClear
5:56 AM30.9 °F24.1 °F76 %30.32 in10.0 miWNW (300°)3.5 mphClear
6:56 AM32.0 °F25.0 °F75 %30.34 in10.0 miCalmClear
7:56 AM35.1 °F28.0 °F76 %30.35 in10.0 miCalmClear
8:56 AM42.1 °F28.9 °F60 %30.36 in10.0 miCalmClear
9:56 AM48.9 °F30.0 °F48 %30.36 in10.0 miCalmClear
10:56 AM57.0 °F30.9 °F37 %30.34 in10.0 miCalmClear
11:56 AM60.1 °F30.0 °F32 %30.31 in10.0 miCalmClear
12:56 PM64.9 °F28.9 °F26 %30.27 in10.0 miVariable3.5 mphClear
1:56 PM66.0 °F28.9 °F25 %30.24 in10.0 miENE (60°)5.8 mphClear
2:56 PM66.9 °F28.9 °F24 %30.22 in10.0 miNE (50°)6.9 mphClear
3:56 PM66.9 °F28.0 °F23 %30.21 in10.0 miNE (40°)6.9 mphClear
4:56 PM64.0 °F28.9 °F27 %30.21 in10.0 miNE (40°)4.6 mphClear
5:56 PM55.9 °F28.9 °F36 %30.22 in10.0 miNE (40°)3.5 mphClear
6:56 PM50.0 °F28.9 °F44 %30.24 in10.0 miWest (260°)6.9 mphClear
7:56 PM45.0 °F30.0 °F56 %30.26 in10.0 miWNW (290°)9.2 mphClear
8:56 PM43.0 °F30.0 °F60 %30.25 in10.0 miWSW (250°)6.9 mphClear
9:56 PM43.0 °F28.9 °F58 %30.25 in10.0 miWest (260°)5.8 mphClear
10:56 PM39.0 °F28.0 °F65 %30.24 in10.0 miWest (280°)3.5 mphClear
11:56 PM36.0 °F26.1 °F67 %30.24 in10.0 miCalmClear
Hourly data recorded from KWJF, located miles away from Quartz Hill, California







STORIES FROM OUR PARTNERS